Location: Newark
(33.9035°S, 18.4112°E)
Time: 07:45:42
(UTC+00:00)

STARLINK-1072 - Pass Details

Date: 21 January 2020
Orbit: 348 x 351 km, 53.0° (Epoch: 23 February)

Event Time Altitude Azimuth Distance (km) Brightness Sun altitude
Exits shadow 02:55:30 20° 288° (WNW) 881 4.1 -11.8°
Maximum altitude 02:57:11 45° 223° (SW) 497 3.3 -11.5°
Drops below altitude 10° 03:00:04 10° 147° (SSE) 1,337 6.8 -11.0°
Sets 03:02:09 0° 141° (SE) 2,187 8.3 -10.6°
